KL1IO Weather Reports


time (UTC)temp
C
wind
direction
speed
KPH
gust
KPH
rain 1hr
cm
rain 24hr
cm
rain mn
cm
humidity
%
barometer
mb
20260507044131 3 252 0.0 0.0 0.00 0.89 0.89 99 1020.4
20260507043627 3 252 0.0 0.0 0.18 0.89 0.89 99 1020.3
20260507043124 3 252 0.0 0.0 0.18 0.89 0.89 99 1020.3
20260507042620 3 252 0.0 0.0 0.00 0.86 0.86 99 1020.2
20260507042115 3 252 0.0 0.0 0.00 0.86 0.86 99 1020.3
20260507041613 3 252 0.0 0.0 0.00 0.86 0.86 99 1020.3
20260507041109 4 252 0.0 0.0 0.13 0.86 0.86 99 1020.2
20260507040606 4 252 0.0 0.0 0.13 0.86 0.86 99 1020.2
20260507035558 4 252 0.0 0.0 0.00 0.84 0.84 99 1020.3
20260507035055 4 252 0.0 0.0 0.00 0.84 0.84 99 1020.2
20260507034552 4 252 0.0 0.0 0.00 0.84 0.84 99 1020.2
20260507034050 4 252 0.0 0.0 0.00 0.84 0.84 99 1020.1
20260507033547 4 252 0.0 0.0 0.00 0.84 0.84 99 1020.1
20260507033044 4 252 0.0 0.0 0.00 0.84 0.84 99 1020.0
20260507032541 4 252 0.0 0.0 0.18 0.84 0.84 99 1020.1
20260507032038 4 252 0.0 0.0 0.18 0.84 0.84 99 1020.0
20260507031534 4 252 0.0 0.0 0.00 0.81 0.81 99 1019.9
20260507031031 4 252 0.0 0.0 0.00 0.81 0.81 99 1019.9
20260507030528 4 252 0.0 0.0 0.00 0.81 0.81 99 1019.7
20260507030026 4 252 0.0 0.0 0.00 0.81 0.81 99 1019.8
20260507025522 4 252 0.0 0.0 0.00 0.81 0.81 99 1019.7
20260507025020 4 252 0.0 0.0 0.00 0.81 0.81 99 1019.5
20260507024518 4 259 0.0 0.0 0.00 0.81 0.81 99 1019.7
20260507024014 4 259 0.0 0.0 0.00 0.81 0.81 99 1019.6
20260507023510 4 259 0.0 0.0 0.00 0.81 0.81 99 1019.6
20260507023008 4 259 0.0 0.0 0.00 0.81 0.81 99 1019.6
20260507022504 5 259 0.0 0.0 0.00 0.81 0.81 99 1019.5
20260507021959 5 256 0.0 0.0 0.00 0.81 0.81 99 1019.5
20260507021455 5 256 0.0 0.0 0.00 0.81 0.81 99 1019.3
20260507020953 5 263 0.0 0.0 0.00 0.81 0.81 99 1019.3
20260507020450 4 263 0.0 0.0 0.00 0.81 0.81 99 1019.3
20260507015947 4 263 0.0 0.0 0.00 0.81 0.81 99 1019.3
20260507015445 4 262 0.0 0.0 0.13 0.81 0.81 99 1019.3
20260507014942 4 258 0.0 0.0 0.13 0.81 0.81 99 1019.2
20260507014438 4 252 0.0 3.2 0.00 0.79 0.79 99 1019.2
20260507013934 4 254 0.0 0.0 0.00 0.79 0.79 99 1019.3
20260507013431 4 259 0.0 0.0 0.00 0.79 0.79 99 1019.2
20260507012929 4 248 0.0 1.6 0.00 0.79 0.79 99 1019.2
20260507012425 4 265 0.0 0.0 0.00 0.79 0.79 99 1019.2
20260507011917 4 267 0.0 1.6 0.00 0.79 0.79 99 1019.2
20260507011414 4 261 0.0 1.6 0.18 0.79 0.79 99 1019.2
20260507010913 4 265 1.6 3.2 0.18 0.79 0.79 99 1019.1
20260507010409 4 263 0.0 1.6 0.00 0.76 0.76 99 1019.2
20260507005906 4 261 0.0 1.6 0.00 0.76 0.76 99 1019.1
20260507005403 4 264 1.6 3.2 0.00 0.76 0.76 98 1019.0
20260507004900 5 265 0.0 1.6 0.00 0.76 0.76 98 1018.9
20260507004357 4 254 0.0 1.6 0.00 0.76 0.76 98 1019.0
20260507003854 5 240 1.6 3.2 0.00 0.76 0.76 97 1018.8
20260507003349 4 247 0.0 1.6 0.00 0.76 0.76 98 1018.9
20260507002844 5 246 1.6 1.6 0.00 0.76 0.76 98 1018.9
20260507002340 4 262 0.0 1.6 0.00 0.76 0.76 99 1018.7
20260507001838 4 262 0.0 3.2 0.00 0.76 0.76 98 1018.7
20260507001335 4 271 0.0 1.6 0.00 0.76 0.76 97 1018.8
20260507000831 4 250 0.0 3.2 0.00 0.76 0.76 97 1018.7
20260507000328 4 263 0.0 0.0 0.00 0.76 0.76 98 1018.6
20260506235824 4 244 1.6 1.6 0.00 0.76 0.76 98 1018.5
20260506235320 4 256 0.0 0.0 0.00 0.76 0.76 98 1018.6
20260506234816 4 255 0.0 0.0 0.13 0.76 0.76 99 1018.4
20260506234314 4 264 0.0 3.2 0.13 0.76 0.76 98 1018.3
20260506233811 4 264 0.0 1.6 0.00 0.74 0.74 98 1018.4
20260506233307 4 264 1.6 3.2 0.00 0.74 0.74 98 1018.3
20260506232804 4 256 0.0 1.6 0.00 0.74 0.74 97 1018.2
20260506232300 4 265 0.0 3.2 0.00 0.74 0.74 97 1018.2
20260506231757 4 263 1.6 3.2 0.00 0.74 0.74 96 1018.2
20260506231255 5 268 0.0 1.6 0.00 0.74 0.74 95 1018.2
20260506230752 5 265 0.0 1.6 0.18 0.74 0.74 95 1018.0
20260506230243 5 259 0.0 1.6 0.18 0.74 0.74 96 1018.0
20260506225739 5 266 0.0 1.6 0.00 0.71 0.71 95 1018.0
20260506225236 5 268 1.6 3.2 0.00 0.71 0.71 95 1018.1
20260506224732 5 255 0.0 3.2 0.00 0.71 0.71 95 1017.9
20260506224230 5 266 1.6 3.2 0.00 0.71 0.71 95 1018.0
20260506223726 4 251 1.6 1.6 0.00 0.71 0.71 96 1017.9
20260506223222 4 255 0.0 1.6 0.00 0.71 0.71 96 1017.7
20260506222714 5 263 0.0 1.6 0.00 0.71 0.71 96 1017.7
20260506222209 4 252 0.0 1.6 0.00 0.71 0.71 96 1017.7
20260506221707 4 264 0.0 1.6 0.00 0.71 0.71 97 1017.7
20260506221205 4 263 0.0 1.6 0.00 0.71 0.71 97 1017.6
20260506220702 4 251 1.6 3.2 0.00 0.71 0.71 96 1017.8
20260506220157 4 259 1.6 3.2 0.00 0.71 0.71 96 1017.6
20260506215654 5 267 0.0 1.6 0.00 0.71 0.71 98 1017.8
20260506215148 4 266 0.0 1.6 0.00 0.71 0.71 97 1017.5
20260506214646 4 254 0.0 1.6 0.00 0.71 0.71 97 1017.7
20260506214143 4 244 1.6 3.2 0.00 0.71 0.71 97 1017.5
20260506213641 4 262 1.6 1.6 0.00 0.71 0.71 98 1017.4
20260506213138 4 268 1.6 1.6 0.00 0.71 0.71 98 1017.4
20260506212635 4 268 1.6 1.6 0.00 0.71 0.71 97 1017.4
20260506212130 4 268 0.0 0.0 0.00 0.71 0.71 98 1017.4
20260506211626 3 268 0.0 1.6 0.00 0.71 0.71 97 1017.4
20260506211123 4 268 0.0 1.6 0.00 0.71 0.71 98 1017.3
20260506210620 3 268 0.0 1.6 0.00 0.71 0.71 98 1017.1
20260506210116 3 269 0.0 1.6 0.00 0.71 0.71 98 1017.1
20260506205613 3 267 1.6 3.2 0.00 0.71 0.71 97 1017.2
20260506205108 3 269 1.6 3.2 0.00 0.71 0.71 98 1017.1
20260506204606 3 269 0.0 3.2 0.00 0.71 0.71 98 1017.0
20260506204103 3 266 1.6 1.6 0.00 0.71 0.71 98 1017.0
20260506203601 3 261 1.6 1.6 0.00 0.71 0.71 98 1016.9
20260506203057 3 265 0.0 1.6 0.00 0.71 0.71 99 1016.9
20260506202555 4 269 3.2 3.2 0.00 0.71 0.71 98 1016.8
20260506202051 3 263 0.0 1.6 0.00 0.71 0.71 99 1016.9
20260506201549 3 258 0.0 1.6 0.00 0.71 0.71 98 1016.9
20260506201045 3 263 0.0 3.2 0.00 0.71 0.71 98 1016.6
20260506200541 3 242 1.6 1.6 0.00 0.71 0.71 98 1016.5
20260506200038 3 257 0.0 1.6 0.00 0.71 0.71 99 1016.5
20260506195535 3 265 0.0 3.2 0.00 0.71 0.71 98 1016.5
20260506195032 3 265 1.6 1.6 0.00 0.71 0.71 99 1016.7
20260506194529 3 265 1.6 1.6 0.00 0.71 0.71 99 1016.5
20260506194026 3 263 1.6 3.2 0.00 0.71 0.71 99 1016.4
20260506193523 3 263 0.0 3.2 0.00 0.71 0.71 99 1016.6
20260506193020 3 265 0.0 1.6 0.00 0.71 0.71 99 1016.5
20260506192517 3 266 0.0 3.2 0.00 0.71 0.71 99 1016.4
20260506192013 3 261 1.6 1.6 0.00 0.71 0.71 99 1016.2
20260506191510 3 259 0.0 0.0 0.00 0.71 0.71 99 1016.4
20260506191006 3 260 0.0 4.8 0.00 0.71 0.71 99 1016.3
20260506190503 3 266 1.6 3.2 0.00 0.71 0.71 99 1016.3
20260506185959 2 261 1.6 3.2 0.00 0.71 0.71 99 1016.1
20260506185457 2 241 3.2 3.2 0.00 0.71 0.71 99 1016.3
20260506184954 2 267 1.6 3.2 0.00 0.71 0.71 99 1016.2
20260506184451 2 249 1.6 1.6 0.00 0.71 0.71 99 1016.3
20260506183948 2 263 0.0 1.6 0.00 0.71 0.71 99 1016.1
20260506183443 2 260 1.6 3.2 0.00 0.71 0.71 99 1016.1
20260506182941 2 261 1.6 3.2 0.00 0.71 0.71 99 1016.3
20260506182438 2 254 0.0 0.0 0.00 0.71 0.71 99 1016.2
20260506181935 2 256 0.0 1.6 0.00 0.71 0.71 99 1016.1
20260506181433 2 253 1.6 1.6 0.00 0.71 0.71 99 1016.0
20260506180930 2 248 0.0 0.0 0.00 0.71 0.71 99 1016.1
20260506180426 2 248 0.0 0.0 0.00 0.71 0.71 99 1016.2
20260506175923 2 257 0.0 0.0 0.00 0.71 0.71 99 1016.0
20260506175420 2 258 0.0 0.0 0.13 0.71 0.71 99 1016.4
20260506174916 2 250 0.0 0.0 0.13 0.71 0.71 99 1016.1
20260506174414 2 250 0.0 0.0 0.00 0.69 0.69 99 1016.0
20260506173911 2 248 0.0 0.0 0.00 0.69 0.69 99 1016.3
20260506173408 2 245 0.0 0.0 0.00 0.69 0.69 99 1016.2
20260506172905 2 228 0.0 1.6 0.00 0.69 0.69 99 1016.3
20260506172401 2 231 0.0 1.6 0.00 0.69 0.69 99 1016.2
20260506171859 2 244 0.0 0.0 0.00 0.69 0.69 99 1016.3
20260506171356 2 241 0.0 0.0 0.00 0.69 0.69 99 1016.2
20260506170854 2 231 0.0 0.0 0.00 0.69 0.69 99 1016.2
20260506170349 2 254 0.0 0.0 0.00 0.69 0.69 99 1016.3
20260506165843 2 255 0.0 0.0 0.00 0.69 0.69 99 1016.1
20260506165341 1 270 0.0 0.0 0.00 0.69 0.69 99 1015.9
20260506164836 1 276 0.0 0.0 0.00 0.69 0.69 99 1016.0
20260506164333 1 60 0.0 1.6 0.18 0.69 0.69 99 1016.1
20260506163826 1 283 0.0 0.0 0.18 0.69 0.69 99 1015.9
20260506163325 1 257 0.0 0.0 0.00 0.66 0.66 99 1016.0
20260506162821 1 269 0.0 0.0 0.00 0.66 0.66 99 1016.1
20260506162319 1 273 0.0 1.6 0.00 0.66 0.66 99 1015.9
20260506161811 1 274 0.0 0.0 0.18 0.66 0.66 99 1015.9
20260506161308 1 278 0.0 0.0 0.18 0.66 0.66 99 1015.8
20260506160805 1 276 0.0 0.0 0.00 0.64 0.64 99 1015.8
20260506160302 1 289 0.0 0.0 0.13 0.64 0.64 99 1015.6
20260506155801 1 272 0.0 0.0 0.13 0.64 0.64 99 1015.8
20260506155257 1 270 0.0 0.0 0.00 0.61 0.61 99 1015.7
20260506153404 1 278 0.0 0.0 0.00 0.58 0.58 99 1015.6
20260506152902 1 277 0.0 0.0 0.13 0.58 0.58 99 1015.6
20260506152358 1 277 0.0 0.0 0.13 0.58 0.58 99 1015.8
20260506151857 1 278 0.0 0.0 0.00 0.56 0.56 99 1015.7
20260506151353 1 276 0.0 0.0 0.18 0.56 0.56 99 1015.7
20260506150851 1 280 0.0 0.0 0.18 0.56 0.56 99 1015.8
20260506150347 1 273 0.0 0.0 0.00 0.53 0.53 99 1015.7
20260506145844 1 277 0.0 0.0 0.00 0.53 0.53 99 1015.6
20260506145340 1 284 0.0 0.0 0.00 0.53 0.53 99 1015.6
20260506144838 1 287 0.0 1.6 0.13 0.53 0.53 99 1015.5
20260506144334 1 277 0.0 1.6 0.13 0.53 0.53 99 1015.5
20260506143833 1 292 0.0 1.6 0.00 0.51 0.51 99 1015.5
20260506143330 1 330 3.2 4.8 0.00 0.51 0.51 99 1015.4
20260506142828 1 346 3.2 3.2 0.00 0.51 0.51 99 1015.4
20260506142325 1 282 0.0 0.0 0.00 0.51 0.51 99 1015.6
20260506141823 1 291 0.0 1.6 0.18 0.51 0.51 99 1015.5
20260506141321 1 289 0.0 0.0 0.18 0.51 0.51 99 1015.5
20260506140819 1 286 0.0 0.0 0.00 0.48 0.48 99 1015.5
20260506140316 1 285 0.0 0.0 0.13 0.48 0.48 99 1015.4
20260506135813 1 285 0.0 0.0 0.13 0.48 0.48 99 1015.3
20260506135309 1 285 0.0 0.0 0.00 0.46 0.46 99 1015.4
20260506134806 1 285 0.0 0.0 0.18 0.46 0.46 99 1015.4
20260506134302 1 285 0.0 0.0 0.18 0.46 0.46 99 1015.4
20260506133759 1 284 0.0 0.0 0.13 0.43 0.43 99 1015.3
20260506133256 1 284 0.0 0.0 0.13 0.43 0.43 99 1015.3
20260506132752 1 284 0.0 0.0 0.00 0.41 0.41 99 1015.4
20260506132249 1 284 0.0 0.0 0.18 0.41 0.41 99 1015.4
20260506131748 1 284 0.0 0.0 0.00 0.38 0.38 99 1015.3
20260506131244 1 284 0.0 0.0 0.13 0.38 0.38 99 1015.1
20260506130741 1 284 0.0 0.0 0.13 0.38 0.38 99 1015.3
20260506130238 1 284 0.0 0.0 0.18 0.36 0.36 99 1015.3
20260506125736 1 284 0.0 0.0 0.18 0.36 0.36 99 1015.2
20260506125233 1 284 0.0 0.0 0.18 0.33 0.33 99 1015.2
20260506124732 1 284 0.0 0.0 0.18 0.33 0.33 99 1015.1
20260506124229 1 284 0.0 0.0 0.00 0.30 0.30 99 1015.1
20260506123726 1 284 0.0 0.0 0.13 0.30 0.30 99 1015.0
20260506123225 1 284 0.0 0.0 0.13 0.30 0.30 99 1015.2
20260506122721 1 284 0.0 0.0 0.00 0.28 0.28 99 1015.2
20260506122219 1 284 0.0 0.0 0.00 0.28 0.28 99 1015.2
20260506121717 1 284 0.0 0.0 0.18 0.28 0.28 99 1015.1
20260506121213 1 284 0.0 0.0 0.00 0.25 0.25 99 1015.1
20260506120710 1 284 0.0 0.0 0.00 0.25 0.25 99 1014.9
20260506120208 1 284 0.0 0.0 0.00 0.25 0.25 99 1015.1
20260506115706 1 284 0.0 0.0 0.00 0.25 0.25 99 1015.3
20260506115204 1 284 0.0 0.0 0.13 0.25 0.25 99 1015.2
20260506114701 1 284 0.0 0.0 0.13 0.25 0.25 99 1015.3
20260506114159 1 284 0.0 0.0 0.18 0.23 0.23 99 1015.1
20260506113657 1 284 0.0 0.0 0.18 0.23 0.23 99 1015.0
20260506113154 1 284 0.0 0.0 0.00 0.20 0.20 99 1015.1
20260506112650 1 284 0.0 0.0 0.13 0.20 0.20 99 1015.2
20260506112148 1 284 0.0 0.0 0.13 0.20 0.20 99 1015.2
20260506111645 1 284 0.0 0.0 0.00 0.18 0.18 99 1015.2
20260506111143 1 284 0.0 0.0 0.18 0.18 0.18 99 1015.2
20260506110640 1 284 0.0 0.0 0.18 0.18 0.18 99 1015.2
20260506110137 1 284 0.0 0.0 0.00 0.15 0.15 99 1015.1
20260506105634 1 284 0.0 0.0 0.00 0.15 0.15 99 1015.2
20260506105131 1 284 0.0 0.0 0.00 0.15 0.15 99 1015.1
20260506104629 1 284 0.0 0.0 0.00 0.15 0.15 99 1015.2
20260506104126 1 284 0.0 0.0 0.13 0.15 0.15 99 1015.3
20260506103623 1 284 0.0 0.0 0.13 0.15 0.15 99 1015.1
20260506103120 1 284 0.0 0.0 0.00 0.13 0.13 99 1015.1
20260506102619 1 284 0.0 0.0 0.00 0.13 0.13 99 1015.3
20260506102116 1 284 0.0 0.0 0.18 0.13 0.13 99 1015.3
20260506101612 1 284 0.0 0.0 0.18 0.13 0.13 99 1015.3
20260506101109 1 284 0.0 0.0 0.00 0.10 0.10 99 1015.2
20260506100608 1 284 0.0 0.0 0.13 0.10 0.10 99 1015.4
20260506100105 1 284 0.0 0.0 0.13 0.10 0.10 99 1015.3
20260506095604 1 284 0.0 0.0 0.00 0.08 0.08 99 1015.0
20260506095100 1 285 0.0 0.0 0.00 0.08 0.08 99 1015.2
20260506094557 1 285 0.0 0.0 0.00 0.08 0.08 99 1015.1
20260506094055 1 285 0.0 0.0 0.18 0.08 0.08 99 1015.2
20260506093553 1 285 0.0 0.0 0.18 0.08 0.08 99 1015.1
20260506093051 1 285 0.0 0.0 0.00 0.05 0.05 99 1015.0
20260506092548 1 285 0.0 0.0 0.00 0.05 0.05 99 1015.2
20260506092045 1 291 0.0 1.6 0.00 0.05 0.05 99 1015.0
20260506091543 1 286 0.0 0.0 0.00 0.05 0.05 99 1015.0
20260506091040 1 286 0.0 0.0 0.00 0.05 0.05 99 1014.9
20260506090538 1 288 0.0 1.6 0.13 0.05 0.05 99 1015.0
20260506090034 1 286 0.0 0.0 0.13 0.05 0.05 99 1015.2
20260506085531 1 285 0.0 0.0 0.00 0.03 0.03 99 1015.3
20260506085027 1 285 0.0 0.0 0.00 0.03 0.03 99 1015.1
20260506084525 1 286 0.0 0.0 0.00 0.03 0.03 99 1015.1
20260506084020 1 285 0.0 0.0 0.00 0.03 0.03 99 1015.0
20260506083518 1 285 0.0 0.0 0.00 0.03 0.03 99 1015.0
20260506083015 1 285 0.0 0.0 0.18 0.03 0.03 99 1015.1
20260506082512 1 285 0.0 0.0 0.18 0.03 0.03 99 1014.8
20260506082007 1 285 0.0 0.0 0.00 0.00 0.00 99 1015.0
20260506081506 1 284 0.0 0.0 0.00 0.00 0.00 99 1015.0
20260506081003 1 284 0.0 0.0 0.00 0.00 0.00 99 1014.9
20260506080500 1 284 0.0 0.0 0.00 0.00 0.00 99 1014.9
20260506073444 1 283 0.0 0.0 0.00 1.65 1.65 99 1014.6
20260506072941 1 283 0.0 0.0 0.00 1.65 1.65 99 1014.6
20260506072438 1 283 0.0 0.0 0.00 1.65 1.65 99 1014.6
20260506071936 1 283 0.0 0.0 0.00 1.65 1.65 99 1014.5
20260506071434 2 283 0.0 0.0 0.00 1.65 1.65 99 1014.5
20260506070930 1 283 0.0 0.0 0.00 1.65 1.65 99 1014.5
20260506070427 1 283 0.0 0.0 0.00 1.65 1.65 99 1014.5
20260506062404 2 276 0.0 0.0 0.00 1.63 1.63 99 1014.1
20260506061900 2 276 0.0 0.0 0.00 1.63 1.63 99 1014.1
20260506061357 2 276 0.0 0.0 0.00 1.63 1.63 99 1014.1
20260506060855 2 276 0.0 0.0 0.00 1.63 1.63 99 1014.0
20260506060353 2 276 0.0 0.0 0.13 1.63 1.63 99 1014.0
20260506051324 2 276 0.0 0.0 0.00 1.57 1.57 99 1013.4
20260506050823 2 276 0.0 0.0 0.00 1.57 1.57 99 1013.4
20260506050319 2 276 0.0 0.0 0.00 1.57 1.57 99 1013.3
20260506044810 2 277 0.0 0.0 0.00 1.57 1.57 99 1013.3